TimeAST,TemperatureF,Dew PointF,Humidity,Sea Level PressureIn,VisibilityMPH,Wind Direction,Wind SpeedMPH,Gust SpeedMPH,PrecipitationIn,Events,Conditions,WindDirDegrees,DateUTC
12:56 AM,73.9,69.1,85,29.94,10.0,Calm,Calm,-,N/A,,Partly Cloudy,0,2012-04-10 04:56:00
1:56 AM,73.9,70.0,87,29.93,10.0,East,3.5,-,N/A,,Scattered Clouds,100,2012-04-10 05:56:00
2:56 AM,73.0,69.1,87,29.90,10.0,Calm,Calm,-,N/A,,Scattered Clouds,0,2012-04-10 06:56:00
3:56 AM,73.9,70.0,87,29.91,10.0,Calm,Calm,-,N/A,,Partly Cloudy,0,2012-04-10 07:56:00
4:56 AM,73.9,69.1,85,29.91,10.0,Calm,Calm,-,N/A,,Scattered Clouds,0,2012-04-10 08:56:00
5:56 AM,73.9,69.1,85,29.93,10.0,South,3.5,-,N/A,,Mostly Cloudy,180,2012-04-10 09:56:00
6:56 AM,75.0,69.1,82,29.95,10.0,Calm,Calm,-,N/A,,Mostly Cloudy,0,2012-04-10 10:56:00
7:56 AM,77.0,70.0,79,29.97,10.0,Calm,Calm,-,0.00,,Mostly Cloudy,0,2012-04-10 11:56:00
8:56 AM,81.0,71.1,72,29.98,10.0,East,10.4,-,N/A,,Mostly Cloudy,100,2012-04-10 12:56:00
9:56 AM,82.0,69.1,65,29.99,10.0,SE,5.8,-,N/A,,Mostly Cloudy,130,2012-04-10 13:56:00
10:21 AM,80.6,71.6,74,29.99,1.8,West,5.8,-,0.05,Rain,Rain,270,2012-04-10 14:21:00
10:32 AM,77.0,69.8,78,29.99,3.0,Calm,Calm,-,0.10,Rain,Light Rain,0,2012-04-10 14:32:00
10:50 AM,78.8,71.6,78,29.99,1.8,Variable,5.8,-,0.11,Rain,Rain,0,2012-04-10 14:50:00
10:56 AM,79.0,70.0,74,29.99,5.0,North,8.1,-,0.21,,Haze,10,2012-04-10 14:56:00
11:56 AM,78.1,69.1,74,29.97,3.0,NW,3.5,17.3,0.09,Rain,Rain,320,2012-04-10 15:56:00
12:17 PM,75.2,69.8,83,29.98,1.5,ENE,12.7,23.0,0.01,Rain,Rain,70,2012-04-10 16:17:00
12:28 PM,78.8,69.8,74,29.97,10.0,ENE,9.2,-,0.01,,Mostly Cloudy,60,2012-04-10 16:28:00
12:56 PM,84.0,72.0,67,29.96,10.0,NNE,11.5,-,0.01,,Scattered Clouds,30,2012-04-10 16:56:00
1:56 PM,82.9,72.0,69,29.94,10.0,ENE,13.8,20.7,N/A,,Mostly Cloudy,70,2012-04-10 17:56:00
2:56 PM,80.1,72.0,76,29.94,10.0,ENE,10.4,-,0.00,,Mostly Cloudy,60,2012-04-10 18:56:00
3:40 PM,78.8,73.4,83,29.95,2.0,East,10.4,-,0.11,Rain,Heavy Rain,80,2012-04-10 19:40:00
3:46 PM,77.0,71.6,83,29.96,2.0,ENE,13.8,23.0,0.42,Rain-Thunderstorm,Heavy Thunderstorms and Rain,70,2012-04-10 19:46:00
3:49 PM,77.0,71.6,83,29.96,2.0,East,13.8,23.0,N/A,Rain-Thunderstorm,Heavy Thunderstorms and Rain,80,2012-04-10 19:49:00
3:53 PM,75.2,71.6,89,29.97,0.5,East,21.9,26.5,0.63,Fog-Rain-Thunderstorm,Heavy Thunderstorms and Rain,90,2012-04-10 19:53:00
3:56 PM,73.9,71.1,91,29.97,0.2,ENE,16.1,26.5,0.80,Fog-Rain-Thunderstorm,Heavy Thunderstorms and Rain,70,2012-04-10 19:56:00
4:10 PM,73.4,69.8,88,29.96,0.5,NNE,17.3,-,0.59,Fog-Rain-Thunderstorm,Thunderstorms and Rain,20,2012-04-10 20:10:00
4:13 PM,73.4,69.8,88,29.96,8.0,NNE,11.5,-,0.59,Rain-Thunderstorm,Light Thunderstorms and Rain,20,2012-04-10 20:13:00
4:22 PM,73.4,69.8,88,29.95,10.0,ENE,6.9,-,0.59,,Mostly Cloudy,60,2012-04-10 20:22:00
4:56 PM,75.9,73.0,91,29.95,10.0,East,3.5,-,0.59,,Mostly Cloudy,80,2012-04-10 20:56:00
5:56 PM,78.1,72.0,81,29.94,10.0,East,6.9,-,N/A,,Mostly Cloudy,90,2012-04-10 21:56:00
6:56 PM,78.1,70.0,76,29.95,10.0,ESE,3.5,-,N/A,,Mostly Cloudy,110,2012-04-10 22:56:00
7:56 PM,78.1,71.1,79,29.96,10.0,ESE,3.5,-,N/A,,Scattered Clouds,110,2012-04-10 23:56:00
8:56 PM,77.0,71.1,82,29.98,10.0,Calm,Calm,-,N/A,,Scattered Clouds,0,2012-04-11 00:56:00
9:56 PM,77.0,71.1,82,29.99,10.0,Calm,Calm,-,N/A,,Partly Cloudy,0,2012-04-11 01:56:00
10:56 PM,77.0,70.0,79,30.00,10.0,Calm,Calm,-,N/A,,Partly Cloudy,0,2012-04-11 02:56:00
11:56 PM,75.9,71.1,85,30.00,10.0,Calm,Calm,-,N/A,,Partly Cloudy,0,2012-04-11 03:56:00